CamptonHillsWeather.com

Find the Weather for any City, State  
or Zipcode, or Country:

Campton Hills, IL Weather
Local Radar

Local Radar

Graphs, Details
Graphs and Gauges
Detailed Weather
Detailed Reports
Ajax Version (old)
Central Kane Co Summary
Davis Current Weather Graphs
Davis 24 Hour Weather History

CW3778 Data

Weather Underground
Maps
Temperature
Heat Index
Windchill
Humidity
Radar
Dew Point
Wind
Visibility
Visible Satellite
Satellite
Fronts
Snow Depth
Jet Stream
Flight Rules
Forecast Maps
Temperature Forecast
Maximum Temperature Forecast
Minimum Temperature Forecast
Dewpoint Forecast
Prevalent Weather
12Hr Probability of Precip.
Sky Cover
Health Maps
UV Forecast
Air Quality
Peak Air Quality Index
Weather Station
Davis Instruments Vantage Pro
Current Conditions [Select Refresh to Update]

Updated: 11:08am on 4/24/14

(location)
Currently:
57.5F

Clear
Partly Cloudy

High: 57.5 F< 
(11:08am
Low: 37.6 F 
(1:49am)
Wind: SSW 4 mph
Light Breeze
Gust: 14 mph
Today's High Wind: 22 mph (10:44am)
Humidity: 56%
Pressure: 29.92 in  (Falling
Pressure Rate: -0.023 in/hr
Dew Point: 41.9F
Wind Chill: 57.5 F
Heat Index (feels like): 58.9 F
Comfort Level: Cool
Temperature Rate:  3.46F/hr
 
5 Day Forecast
 
Thu Fri Sat Sun Mon
Clear Clear Clear Clear Clear
T-storms Partly Cloudy Partly Cloudy Chance Rain Chance T-storms
68 68 63 72 79
45 41 41 54 50

Records and Normals
 
Temperature Forecast Normal Record
High 68 64 75
(1998)
Low 45 40 28
(1999)
 
Links
 
 
Weather Advisories
No Advisories
Full Advisory Text...
Weather Map

Web Cam

Almanac
 
Sunrise:  
5:58am
Moonrise: 
3:16am

Moon Phase:
30%

Sunset: 
7:43pm
Moonset:  
2:56pm
 Star Chart...
Rainfall Totals
Hourly Rain 0.00 in
Daily Rain: 0.02 in
Monthly Rain: 1.27 in
Yearly Rain: 4.89 in
Normal Rain, month to date: 1.12 in
Normal Rain, year to date: 2.79 in
Link to Village of Campton Hills Map

Link to Counties of Illinois Map

Local Weather Exchange Network
Station ID City 
(Click for Map Location)
Neighborhood 
(Click for History)
Last Update (Date & Time) Temperature
 ()
Dew
Point ()
Humidity 
(%)
Wind 
(mph)
from the Wind Gust 
(mph) 
Pressure(in) Hourly
Rain(in)
KILGENEV5 Geneva meso_neigh1 04/24 11:05:34 57.7 41.0 53 17 NE 25 29.85 0.00
KILSTCHA10 St. Charles Hunt Club 04/24 11:05:55 61.9 44.0 51 2 ENE 5 29.49 0.00
KILSOUTH6 South Elgin Thornwood 04/24 11:04:13 58.5 39.0 49 14 South 0 29.80 0.00
KILCAMPT3 Campton Hills Campton Hills 04/24 11:06:03 57.6 37.0 46 3 SSE 22 29.93 0.00
KILGENEV6 Geneva Dover Ridge 04/24 11:06:10 57.8 40.0 52 12 SE 12 29.90 0.00
KILSTCHA8 St. Charles Ronzheimer Ave. & S. Tyler Rd. 04/24 10:14:09 55.0 39.0 54 7 South 18 29.92 0.00
KILGENEV3 Geneva Mill Creek (NE) 04/24 11:05:56 58.1 42.0 54 16 South 23 29.92 0.00
KILSTCHA1 St Charles CamptonHillsWeather.com Central Kane County 04/24 11:06:05 57.4 41.0 55 3 SW 14 29.92 0.00
KILSOUTH5 South Elgin Concord Park 04/24 11:01:49 58.3 40.0 50 10 ESE 0 29.69 0.00
KILGENEV2 Geneva Mill Creek 04/24 11:01:37 57.4 40.0 53 12 SE 18 29.86 0.00
KILBATAV1 Batavia Tri-Cities on the Fox River 04/24 11:05:36 59.6 38.0 45 5 SE 21 29.89 0.00
KILELBUR5 Elburn Prairie Highlands 04/24 11:05:15 58.0 43.0 57 8 ESE 18 29.91 0.00
KILBATAV3 Batavia West Batavia 04/24 11:06:21 57.8 43.0 57 12 SSE 0 29.89 0.01
KILELBUR6 Elburn Columbine Square 04/24 11:02:08 58.9 42.0 54 1 SSW 10 29.86 0.00
KILBATAV5 Batavia Fermi National Accelerator Laboratory 04/24 11:02:46 59.1 41.0 51 15 SE 22 29.87 0.01
KILWESTC5 West Chicago THEBROWNHOUSE.ORG 04/24 11:06:22 62.1 35.0 37 0 SE 0 29.90 0.00
KILWESTC8 West Chicago Ingalton Hills Estates 04/24 11:06:22 58.0 45.0 61 10 ESE 10 29.95 0.02
KILBARTL1 Bartlett Amber Grove KC9TVS 04/24 10:56:29 56.6 39.0 53 15 SE 24 29.99 0.00
KILNORTH11 North Aurora Waterford Oaks 04/24 11:06:22 59.0 41.0 52 11 ESE 25 29.90 0.00
KILELGIN10 Elgin Wing Park 04/24 11:06:14 57.4 34.0 41 4 SE 8 29.06 0.00
KILCAROL5 Carol Stream Stonehenge Court 04/24 11:05:04 59.0 14.0 17 8 SE 8 29.87 0.00
MUP431 West Chicago MesoWest WINFL1 IL US UPR 04/24 09:45:00 53.0 0.0 0 0 North 0 0.00 0.00
KILGILBE2 Gilberts Gilberts, IL 04/24 11:06:04 58.5 34.0 40 14 SE 20 29.49 0.00
KILELGIN11 Elgin Trout Park 04/24 11:06:02 58.3 36.0 43 17 SE 22 29.94 0.00
KILWINFI3 Winfield Fredericksburg Farm 04/24 11:06:18 57.6 40.0 52 5 ESE 13 29.84 0.00
KILWINFI2 Winfield Winfield Heights (SarahNet) 04/24 10:52:36 56.4 39.0 53 1 ESE 15 29.93 0.00
KILSLEEP3 Sleepy Hollow SLEEPY HOLLOW 04/24 11:06:23 59.9 41.0 50 3 SE 5 29.39 0.00
KILCAROL6 Carol Stream Merbach Ct 04/24 11:06:10 60.4 39.0 45 9 SE 11 29.85 0.00
KILSLEEP2 Sleepy Hollow Sleepy Hollow Manor 04/24 11:03:50 59.2 42.0 53 6 South 0 29.81 0.00
KILWARRE2 Warrenville meso_neigh30 04/24 11:05:59 59.4 41.0 51 14 ESE 20 29.91 0.00
KILHANOV2 Hanover Park meso_neigh31 04/24 11:05:12 58.5 38.0 46 4 SE 7 29.91 0.00
KILWHEAT8 Wheaton Wheaton Sanitary District 04/24 11:04:25 58.4 43.0 58 4 SSE 14 29.92 0.00
KILWARRE4 Warrenville Cerny Park 04/24 11:05:09 61.9 40.0 44 6 South 10 29.89 0.00
KILWHEAT5 Wheaton N9ABF - West Wheaton 04/24 11:05:44 58.5 42.0 54 6 SE 0 29.89 0.00
KILSCHAU9 Schaumburg Schaumburg West 04/24 11:06:14 58.3 47.0 66 8 SSE 21 29.95 0.00
KILEASTD2 East Dundee Rock Road Industrial Park 04/24 11:01:28 56.3 35.0 44 15 SE 21 28.96 0.00
KILCARPE6 Carpentersville Carpentersville 04/24 11:05:11 58.6 42.0 54 8 SE 8 29.03 0.00
KDPA Chicago DuPage Official Station 04/24 10:52:00 59.0 38.0 46 15 SE --- 29.92 ---
KARR Aurora Official Station 04/24 10:52:00 59.0 40.0 49 25 SE --- 29.91 ---
KDKB DeKalb Official Station 04/24 10:55:00 56.0 38.0 51 26 SE --- 29.90 ---
Full Advisory Text
No Warnings

Ambient Weather and Weather Underground
 Never base important decisions on this or any weather information obtained from the Internet
Updated Automatically by Ambient Weather's Virtual Weather Station  V13.01